Weather History for CYBN - October, 2011

Change the Weather History Date:

Thursday, October 6, 2011

  Actual Average Record
Temperature  
Mean Temperature 48 °F -  
Max Temperature 68 °F 52 °F 84 °F (2005)
Min Temperature 28 °F 35 °F 26 °F (2006)
Degree Days  
Heating Degree Days 17    
Moisture  
Dew Point 36 °F    
Average Humidity 89    
Maximum Humidity 100    
Minimum Humidity 32    
Precipitation  
Precipitation 0.00 in - - ()
Sea Level Pressure  
Sea Level Pressure 30.37 in    
Wind  
Wind Speed 1 mph ()    
Max Wind Speed 7 mph    
Max Gust Speed -    
Visibility 4.6 miles    
Events      
Averages and records for this station are not official NWS values.
T = Trace of Precipitation, MM = Missing Value Source: Averaged Metar Reports

Daily Weather History Graph

Daily Weather History Graph

Search for Another Location

Airport or City:

Trip Planner

Search our weather history database for the weather conditions in past years. The results will help you decide how hot, cold, wet, or windy it might be!

Date:

Astronomy

Oct. 06, 2011 Rise Set
Actual Time 7:23 AM EDT 6:51 PM EDT
Civil Twilight 6:54 AM EDT 7:20 PM EDT
Nautical Twilight 6:20 AM EDT 7:54 PM EDT
Astronomical Twilight 5:46 AM EDT 8:28 PM EDT
Moon 4:13 PM EDT (10/6) 1:58 AM EDT (10/6)
Length of Visible Light 12h 26m
Length of Day
11h 28m
Waxing Gibbous, 75% of the Moon is Illuminated
Oct 6
Waxing Gibbous
Oct 11
Full
Oct 19
Last Quarter
Oct 26
New
Nov 2
First Quarter

Hourly Weather History & Observations

Time (EDT) Temp. Windchill Dew Point Humidity Pressure Visibility Wind Dir Wind Speed Gust Speed Precip Events Conditions
12:00 AM 35.6 °F - 35.6 °F 100% 30.37 in 0.4 mi Calm Calm - N/A   Clear
12:03 AM 35.6 °F - 35.6 °F 100% 30.35 in 0.6 mi Calm Calm - N/A   Clear
12:05 AM 35.6 °F - 35.6 °F 100% 30.35 in 2.1 mi Calm Calm - N/A   Clear
12:13 AM 33.8 °F - 33.8 °F 100% 30.35 in 1.0 mi Calm Calm - N/A   Clear
12:14 AM 33.8 °F - 33.8 °F 100% 30.35 in 0.8 mi Calm Calm - N/A   Clear
12:16 AM 33.8 °F - 33.8 °F 100% 30.35 in 0.6 mi Calm Calm - N/A   Clear
12:34 AM 33.8 °F - 33.8 °F 100% 30.35 in 9.0 mi SW 2.3 mph - N/A   Clear
12:39 AM 33.8 °F - 33.8 °F 100% 30.35 in 1.0 mi SW 2.3 mph - N/A   Mostly Cloudy
12:40 AM 33.8 °F - 33.8 °F 100% 30.35 in 0.6 mi Calm Calm - N/A   Mostly Cloudy
12:41 AM 33.8 °F - 33.8 °F 100% 30.35 in 0.4 mi Calm Calm - N/A   Mostly Cloudy
12:44 AM 33.8 °F - 33.8 °F 100% 30.35 in 0.2 mi Calm Calm - N/A   Clear
12:57 AM 33.8 °F - 33.8 °F 100% 30.36 in 0.5 mi SW 2.3 mph - N/A   Clear
1:00 AM 33.8 °F - 33.8 °F 100% 30.38 in 1.0 mi SW 2.3 mph - N/A   Clear
1:01 AM 33.8 °F - 33.8 °F 100% 30.36 in 2.4 mi SSW 2.3 mph - N/A   Clear
1:03 AM 33.8 °F - 33.8 °F 100% 30.36 in 8.0 mi SW 2.3 mph - N/A   Clear
2:00 AM 31 °F - 31 °F 100% 30.38 in 3 mi Calm Calm - -  
2:00 AM 32.0 °F - 30.2 °F 93% 30.38 in 3.0 mi Calm Calm - N/A   Clear
2:01 AM 32.0 °F - 30.2 °F 93% 30.36 in 2.1 mi Calm Calm - N/A   Clear
2:04 AM 32.0 °F - 30.2 °F 93% 30.37 in 1.4 mi Calm Calm - N/A   Clear
2:12 AM 32.0 °F - 32.0 °F 100% 30.36 in 4.0 mi SSW 2.3 mph - N/A   Clear
2:33 AM 32.0 °F - 30.2 °F 93% 30.37 in 1.8 mi SSW 2.3 mph - N/A   Clear
2:34 AM 32.0 °F - 30.2 °F 93% 30.37 in 1.2 mi Calm Calm - N/A   Clear
2:35 AM 32.0 °F - 32.0 °F 100% 30.37 in 1.0 mi Calm Calm - N/A   Clear
2:36 AM 32.0 °F - 32.0 °F 100% 30.37 in 0.6 mi Calm Calm - N/A   Clear
2:39 AM 32.0 °F - 32.0 °F 100% 30.37 in 0.4 mi Calm Calm - N/A   Clear
3:00 AM 32.0 °F 28.7 °F 30.2 °F 93% 30.39 in 1.2 mi SSW 3.5 mph - N/A   Clear
3:02 AM 32.0 °F 28.7 °F 30.2 °F 93% 30.37 in 6.0 mi SW 3.5 mph - N/A   Clear
4:00 AM 30.2 °F - 30.2 °F 100% 30.39 in 9.0 mi Calm Calm - N/A   Clear
5:00 AM 30.2 °F - 28.4 °F 93% 30.40 in 9.0 mi Calm Calm - N/A   Clear
6:00 AM 28.4 °F - 28.4 °F 100% 30.40 in 9.0 mi Calm Calm - N/A   Clear
6:46 AM 28.4 °F - 28.4 °F 100% 30.38 in 2.2 mi Calm Calm - N/A   Clear
6:50 AM 28.4 °F - 26.6 °F 93% 30.38 in 1.4 mi SW 2.3 mph - N/A   Clear
6:57 AM 28.4 °F - 26.6 °F 93% 30.38 in 3.0 mi Calm Calm - N/A   Clear
7:00 AM 28.4 °F - 28.4 °F 100% 30.41 in 9.0 mi Calm Calm - N/A   Clear
9:00 AM 42.8 °F 41.1 °F 41.0 °F 93% 30.43 in 9.0 mi SSE 3.5 mph - N/A   Partly Cloudy
10:00 AM 50.0 °F - 46.4 °F 87% 30.43 in 9.0 mi South 6.9 mph - N/A   Clear
12:00 PM 60.8 °F - 44.6 °F 55% 30.40 in 9.0 mi South 3.5 mph - N/A   Clear
1:00 PM 64.4 °F - 44.6 °F 49% 30.38 in 9.0 mi SSE 3.5 mph - N/A   Unknown
2:00 PM 66 °F - 43 °F 32% 30.35 in - ESE 3.5 mph - -  
2:00 PM 66.2 °F - 42.8 °F 43% 30.35 in - ESE 3.5 mph - N/A   Clear
3:00 PM 66.2 °F - 44.6 °F 46% 30.34 in 9.0 mi East 2.3 mph - N/A   Unknown
5:00 PM 66.2 °F - 46.4 °F 49% 30.33 in 9.0 mi NNE 4.6 mph - N/A   Unknown
6:00 PM 66.2 °F - 46.4 °F 49% 30.33 in 9.0 mi NE 2.3 mph - N/A   Unknown
7:00 PM 57.2 °F - 50.0 °F 77% 30.34 in 9.0 mi Calm Calm - N/A   Unknown
8:00 PM 51 °F - 49 °F 88% 30.35 in 9 mi Calm Calm - -  
8:00 PM 50.0 °F - 48.2 °F 94% 30.35 in 9.0 mi Calm Calm - N/A   Unknown
9:00 PM 50.0 °F - 46.4 °F 87% 30.36 in 9.0 mi South 2.3 mph - N/A   Unknown
10:00 PM 46.4 °F - 44.6 °F 93% 30.35 in 9.0 mi South 2.3 mph - N/A   Unknown
11:00 PM 42.8 °F - 42.8 °F 100% 30.36 in 9.0 mi SE 2.3 mph - N/A   Clear